Regional Weather Roundup
Issued by NWS Nashville, TN

Home | Current Version | Previous Version | Text Only | Print | Product List | Glossary On
Versions: 1 2 3 4 5 6 7 8 9 10 11 12 13 14 15 16 17 18 19 20 21 22 23 24 25 26 27 28 29 30 31 32 33 34 35 36 37 38 39 40 41 42 43 44 45 46 47 48 49 50
000
ASUS44 KOHX 110810
RWROHX
MIDDLE TENNESSEE HOURLY WEATHER ROUNDUP
NATIONAL WEATHER SERVICE NASHVILLE TN
200 AM CST THU FEB 11 2016

NOTE: "FAIR" INDICATES FEW OR NO CLOUDS BELOW 12,000 FEET WITH
NO SIGNIFICANT WEATHER AND/OR OBSTRUCTIONS TO VISIBILITY.

* THESE REPORTS ARE NOT UNDER NWS QUALITY CONTROL AND MAY NOT
  REPORT WEATHER SUCH AS PRECIPITATION AND FOG.


TNZ005>011-023>034-057-059-062>066-078-080-110900
...NORTHERN MIDDLE TENNESSEE...

CITY           SKY/WX    TMP DP  RH WIND       PRES   REMARKS
CLARKSVILLE    CLOUDY    25  21  85 E5        30.15F WCI  19
CROSSVILLE     CLOUDY    21  17  84 CALM      30.09F
DICKSON        CLOUDY    23  19  86 E3        30.12S
LEBANON        CLOUDY    23  20  89 CALM      30.14F
LIVINGSTON     CLOUDY    24  17  74 CALM      30.12F
NASHVILLE      CLOUDY    26  21  81 SE5       30.16F WCI  20
PORTLAND       CLOUDY   N/A N/A N/A E3        30.14F
ROCKWOOD       CLOUDY    22  17  81 CALM      30.09F
SMYRNA         CLOUDY    25  22  88 E7        30.18F WCI  17
SPARTA         MOCLDY    23  18  80 CALM      30.13S
$$
TNZ056-058-060-061-075>077-079-093>097-110900
...SOUTHERN MIDDLE TENNESSEE...

CITY           SKY/WX    TMP DP  RH WIND       PRES   REMARKS
COLUMBIA       MOCLDY    25  25 100 CALM      30.12F
FAYETTEVILLE   MOCLDY    27  19  74 NE5       30.12F WCI  21
LEWISBURG      CLOUDY    24  20  85 CALM      30.14F
MCMINNVILLE    CLOUDY    25  19  80 CALM      30.13F
SHELBYVILLE    CLOUDY    27  21  80 E3        30.15F
TULLAHOMA      CLOUDY    25  21  86 CALM      30.13F
WINCHESTER     CLOUDY    27  21  80 CALM      30.14F
$$


...KEY TO REMARKS...
VSB - VISIBILITY IN MILES
WCI - WIND CHILL INDEX
HX  - HEAT INDEX




USA.gov is the U.S. government's official web portal to all federal, state and local government web resources and services.